Regional Weather Roundup
Issued by NWS

Home | Current Version | Previous Version | Graphics & Text | Print | Product List | Glossary On
Versions: 1 2 3 4 5 6 7 8 9 10 11 12 13 14 15 16 17 18 19 20 21 22 23 24 25 26 27 28 29 30 31 32 33 34 35 36 37 38 39 40 41 42 43 44 45 46 47 48 49 50
000
ASUS45 KABQ 011101
RWRNM
NEW MEXICO REGIONAL WEATHER ROUNDUP
NATIONAL WEATHER SERVICE ALBUQUERQUE NM
500 AM MDT SAT AUG 01 2015

NOTE: "FAIR" MEANS FEW OR NO CLOUDS BELOW 12,000 FEET AGL WITH NO
       SIGNIFICANT WEATHER OR OBSTRUCTIONS TO VISION.

      THIS PRODUCT IS RELEASED AS TWO VERSIONS.  ONE VERSION NEAR
      THE TOP OF THE HOUR CONTAINING PRELIMINARY DATA FROM ALBUQUERQUE
      AND OTHER STATIONS.  A FINAL VERSION WITH ADDITIONAL DATA IS
      ISSUED ABOUT 10 MINUTES AFTER THE HOUR.

NMZ501-503-504-510>518-011200-
NORTHWEST PLATEAU/NORTHCENTRAL MOUNTAINS

CITY           SKY/WX    TMP DP  RH WIND       PRES   REMARKS
FARMINGTON     MOCLDY    63  61  93 E3        30.25F
SANTA FE       MOCLDY    62  57  83 S5        30.34F
TAOS           CLOUDY    57  48  72 CALM      30.40F

$$
NMZ402-403-502-505>509-011200-
WESTCENTRAL MOUNTAINS/SOUTHWEST MOUNTAINS

CITY           SKY/WX    TMP DP  RH WIND       PRES   REMARKS
GALLUP         CLOUDY    61  59  93 CALM      30.32S
SILVER CITY      N/A     63  57  82 NW6       30.25S

$$
NMZ407-409-411-412-011200-
SOUTHERN DESERTS

CITY           SKY/WX    TMP DP  RH WIND       PRES   REMARKS
DEMING         PTCLDY    70  60  70 NE9       30.16S
HOLLOMAN AFB   PTCLDY    72  58  60 NW13      30.14S
ALAMOGORDO     PTCLDY    70  55  60 N3        30.16S
T OR C         CLOUDY    66  62  87 N5        30.22F

$$
NMZ519>523-011200-
CENTRAL VALLEYS/CENTRAL HIGHLANDS

CITY           SKY/WX    TMP DP  RH WIND       PRES   REMARKS
ALBUQUERQUE    CLOUDY    68  58  70 CALM      30.29F
DOUBLE EAGLE   CLOUDY    63  60  90 S5        30.32F
MORIARTY ARPT  RAIN      61  58  89 CALM      30.35F
CLINES CORNERS MOCLDY    58  55  90 W9        30.37S
BELEN          CLOUDY    66  58  75 CALM      30.28F
SOCORRO        NOT AVBL

$$
NMZ524>526-539-540-011200-
SOUTHCENTRAL MOUNTAINS

CITY           SKY/WX    TMP DP  RH WIND       PRES   REMARKS
RUIDOSO          N/A    N/A N/A N/A MISG        N/A

$$
NMZ527>531-011200-
NORTHEAST HIGHLANDS/NORTHEAST PLAINS

CITY           SKY/WX    TMP DP  RH WIND       PRES   REMARKS
LAS VEGAS      MOCLDY    58  57  97 S9        30.35F
RATON          CLOUDY    61  57  87 N5        30.30F
CLAYTON        PTCLDY    65  61  87 SW13      30.22F

$$
NMZ532>537-011200-
EASTCENTRAL PLAINS

CITY           SKY/WX    TMP DP  RH WIND       PRES   REMARKS
TUCUMCARI      RAIN      69  66  90 SW7       30.21S FOG
CANNON AFB     CLOUDY    67  66  96 NE3       30.21F
CLOVIS AIRPORT CLOUDY    66  64  94 E6        30.22S

$$
NMZ028-029-538-011200-
SOUTHEAST PLAINS

CITY           SKY/WX    TMP DP  RH WIND       PRES   REMARKS
ROSWELL        PTCLDY    74  64  71 N6        30.15F
ARTESIA        CLEAR     72  64  78 N6        30.14F
CARLSBAD       CLEAR     75  59  57 W7        30.10F
HOBBS          CLEAR     70  66  88 CALM      30.16R


$$


USA.gov is the U.S. government's official web portal to all federal, state and local government web resources and services.